INTELSAT 32E (IS-32E) (41945 NORAD) Tracking and Keplerian Element Data

This shows tracking and keplerian element data for the satellite.

Feedback or suggestion? Click here.




ElementValue
Catalog41945
NameINTELSAT 32E (IS-32E)
Epoch Orbit528
Epoch Day201.29211685
Epoch Year2018
RAAN64.8868
Inclination0.0171
Eccentricity6.02E-05
Argument of Perigee327.0368
Mean Anonmoly328.0629
Mean Motion1.00274495
Decay Rate-2.85E-06
L11 41945U 17007B 18201.29211685 -.00000285 00000-0 00000+0 0 9999
L22 41945 0.0171 64.8868 0000602 327.0368 328.0629 1.00274495 5288

Live tracking and technical data element details for INTELSAT 32E (IS-32E) (NORAD 41945). INTELSAT 32E (IS-32E) can be tracked NOW for your location showing map with azimuth and elevation plus other details from your city location.

Track the satellite on the map from your city or location and see movement details for azimuth, elevation, latitude, longitude, range, height, and movement on the map or in text.







IsCatalogInMostPopularTable: catalog: 41945, numindb: 88
Update: records affected: 1



GetName: 41945 INTELSAT 32E (IS-32E)

Hit Count: updated at: Sat, 21 Jul 2018 07:59:05 GMT